Home > Weather > Bukoba > Past weeks

Flag for Tanzania Past Weather in Bukoba, Tanzania — Yesterday and Last 2 Weeks

Now
72 °F

Broken clouds.


Feels Like: 72 °F
Forecast: 63 / 78 °F
Wind: 18 mph from Southeast

Location: Entebbe Airport

Current Time: Jun 26, 2016 at 7:35:57 AM

Latest Report: Jun 26, 2016 at 7:00 AM


Visibility: N/A

Pressure: 30.12 "Hg (26.36 "Hg at 1153m altitude)

Humidity: 78%

Dew Point: 64 °F

Location of BukobaLocation

Past Weather in Bukoba — Graph

°F

Bukoba Temperature Yesterday

Maximum temperature yesterday: 77 °F (at 12:00 PM)
Minimum temperature yesterday: 68 °F (at 6:00 AM)
Average temperature yesterday: 72 °F

High & Low Weather Summary for the Past Weeks

 TemperatureHumidityPressure
High81 °F (Jun 11, 12:00 PM)100% (Jun 18, 9:00 PM)30.21 "Hg (Jun 18, 9:00 PM)
Low64 °F (Jun 18, 9:00 PM)38% (Jun 16, 8:00 PM)29.89 "Hg (Jun 11, 1:00 PM)
Average72 °F81%30.11 "Hg
* Reported Jun 11 6:00 AM — Jun 26 6:00 AM, Bukoba, Weather by CustomWeather, © 2016

Note: Actual official high and low records may vary slightly from our data, if they occured in-between our weather recording intervals... More about our weather records

Advertising

Bukoba Weather History for the Previous 24 Hours

Scroll right to see more
 ConditionsComfort  
Time TempWeatherWind HumidityBarometerVisibility
6:00 AM
Sun, Jun 26
72 °FThunderstorms. Partly cloudy.16 mph83%30.09 "Hg5 mi
5:00 AM68 °FThunderstorms. Mostly cloudy.16 mph83%30.09 "Hg4 mi
4:00 AM68 °FThunderstorms. Mostly cloudy.16 mph94%30.09 "Hg4 mi
3:00 AM70 °FPassing clouds.6 mph83%30.07 "Hg6 mi
2:00 AM70 °FPassing clouds.6 mph88%30.07 "HgN/A
1:00 AM72 °FPassing clouds.7 mph78%30.09 "HgN/A
12:00 AM72 °FPassing clouds.12 mph83%30.09 "HgN/A
11:00 PM
Sat, Jun 25
72 °FPassing clouds.7 mph78%30.09 "HgN/A
10:00 PM72 °FPassing clouds.8 mph78%30.09 "HgN/A
9:00 PM72 °FPassing clouds.9 mph78%30.09 "HgN/A
8:00 PM72 °FPassing clouds.13 mph73%30.07 "HgN/A
7:00 PM73 °FPassing clouds.9 mph74%30.07 "HgN/A
6:00 PM73 °FPassing clouds.7 mph78%30.07 "HgN/A
5:00 PM75 °FScattered clouds.16 mph69%30.04 "HgN/A
4:00 PM77 °FPartly sunny.14 mph69%30.07 "HgN/A
3:00 PM77 °FScattered clouds.12 mph69%30.07 "HgN/A
2:00 PM77 °FScattered clouds.15 mph69%30.09 "HgN/A
1:00 PM77 °FScattered clouds.18 mph69%30.09 "HgN/A
12:00 PM77 °FPartly sunny.12 mph69%30.12 "HgN/A
11:00 AM75 °FPartly sunny.15 mph74%30.12 "HgN/A
10:00 AM75 °FBroken clouds.14 mph78%30.12 "Hg6 mi
9:00 AM70 °FLight rain. Broken clouds.6 mph88%30.09 "Hg6 mi
8:00 AM68 °FThunderstorms. Cloudy.9 mph88%30.09 "Hg5 mi
7:00 AM68 °FScattered clouds.7 mph88%30.07 "Hg6 mi
Weather by CustomWeather, © 2016

See weather overviewHow to use our weather pages